sat.trackr.live / text

‹ back to catalog

STARLINK-31052

NORAD 58600 · 2023-200M

PAYLOAD ACTIVE UNKNOWN

§ Identity

Operator
Country
US
Launch date
2023-12-19
Launch site
AFETR
Launch vehicle
Mass (kg)
RCS (m²)

Purposes: comms

External: N2YO · Heavens-Above · Gunter

§ Orbital elements

Epoch: 2026-05-24T22:15:58.987584Z

Period
94.26 min
Inclination
43.0039°
Eccentricity
0.0001664
Mean motion
15.27668649 rev/d
Perigee alt
481.6 km
Apogee alt
483.9 km
Semi-major
6,860.9 km
B*
-7.5970e-4
RAAN
98.0273°
Arg perigee
282.4311°
Mean anomaly
77.6354°
Rev number
13,527

§ Raw data

STARLINK-310521 58600U 23200M   26144.92776606 -.00021165  00000+0 -75970-3 0  99932 58600  43.0039  98.0273 0001664 282.4311  77.6354 15.27668649135271

JSON: /api/v1/satellites/58600 · /tle

For live sub-satellite position, see the globe view (requires WebGL).

§ Visibility from observer

Set your observer location to see the next 7 days of passes ≥ 10°. The values pass through the URL so the page stays shareable.

No JS? Fill the form by hand. The geolocation button needs JavaScript.